Regional Weather Roundup
Issued by NWS

Home | Current Version | Previous Version | Text Only | Print | Product List | Glossary On
Versions: 1 2 3 4 5 6 7 8 9 10 11 12 13 14 15 16 17 18 19 20 21 22 23 24 25 26 27 28 29 30 31 32 33 34 35 36 37 38 39 40 41 42 43 44 45 46 47 48 49 50
000
ASUS46 KSEW 050510
RWRWA

WASHINGTON REGIONAL WEATHER ROUNDUP
NATIONAL WEATHER SERVICE SEATTLE WA
1000 PM PDT SAT JUL 04 2015

NOTE:"FAIR" INDICATES FEW OR NO CLOUDS BELOW 12,000 FEET WITH NO
SIGNIFICANT WEATHER AND/OR OBSTRUCTIONS TO VISIBILITY.

WAZ505-507>509-050600-
SEATTLE, TACOMA, EVERETT, AND VICINITY

CITY           SKY/WX    TMP DP  RH WIND       PRES   REMARKS
EVERETT        CLEAR     73  47  39 N3        29.81R
BOEING FIELD   CLEAR     81  44  27 NW3       29.77R
RENTON         CLEAR     78  56  46 NW3       29.77R
SEATAC AIRPORT PTCLDY    81  42  25 N6        29.80R
JBLM-MCCHORD   CLEAR     80  44  28 NE3       29.78R
PUYALLUP       FAIR      73  45  35 CALM      29.79R
BREMERTON      CLEAR     75  48  38 NE7       29.82R
JBLM-FT LEWIS  CLEAR     81  44  26 NW3       29.78R
TACOMA NARROWS CLEAR     78  43  28 N3        29.78R
$$

WAZ001-503-506-510-514-515-050600-
NORTH INTERIOR

CITY           SKY/WX    TMP DP  RH WIND       PRES   REMARKS
BELLINGHAM     CLEAR     66  51  58 CALM      29.78R
FRIDAY HARBOR  CLEAR     56  51  84 CALM      29.80R
EASTSOUND      CLEAR     68  50  52 SE3       29.76S
PORT ANGELES   CLEAR     62  53  72 S3        29.80S
PORT TOWNSEND  FAIR      61  55  82 CALM      29.79R
NAS WHIDBEY    PTCLDY    63  53  70 CALM      29.83R
ARLINGTON      CLEAR     70  46  43 NW9       29.80R
BURLINGTON     CLEAR     66  52  59 CALM      29.79R
$$

WAZ020-022-039-040-504-511-512-050600-
SOUTHWEST INTERIOR

CITY           SKY/WX    TMP DP  RH WIND       PRES   REMARKS
SHELTON        CLEAR     75  55  49 W7        29.77R
OLYMPIA        CLEAR     77  54  44 NE3       29.78R
CHEHALIS       FAIR      75  59  57 CALM      29.78R
KELSO          CLEAR     73  55  53 CALM      29.82R
VANCOUVER      MOCLDY    84  56  38 VRB3      29.75R
SCAPPOOSE, OR  PTCLDY    80  58  46 N5        29.75R
PORTLAND, OR   MOCLDY    85  59  41 W6        29.76R
$$

WAZ021-516-517-050600-
WASHINGTON COAST

CITY           SKY/WX    TMP DP  RH WIND       PRES   REMARKS
FORKS          CLEAR     57  55  93 CALM      29.80R
HOQUIAM        CLEAR     61  57  87 SW7       29.81R
ASTORIA, OR    CLEAR     60  57  89 SW3       29.82R
$$

WAZ019-023-024-040-518-519-050600-
CASCADE MOUNTAINS AND COLUMBIA GORGE

CITY           SKY/WX    TMP DP  RH WIND       PRES   REMARKS
TROUTDALE, OR  MOCLDY    85  57  38 VRB3      29.74R
THE DALLES, OR MOCLDY    90  45  21 W13G25    29.67R
$$

WAZ026-027-041>044-520-521-050600-
EAST SLOPES

CITY           SKY/WX    TMP DP  RH WIND       PRES   REMARKS
OMAK           PTCLDY    84  30  14 N17G29    29.77R
WENATCHEE      CLEAR     90  39  16 W12       29.71R
ELLENSBURG     PTCLDY    79  35  20 NW13      29.75R
YAKIMA         PTCLDY    89  38  16 N10G20    29.71R
$$

WAZ028-034-035-050600-
COLUMBIA BASIN

CITY           SKY/WX    TMP DP  RH WIND       PRES   REMARKS
EPHRATA        CLEAR     89  37  16 N20G26    29.66R
MOSES LAKE     PTCLDY    89  39  17 N14       29.66R
PASCO          MOCLDY    94  48  20 S7        29.61R HX  90
HERMISTON, OR  MOCLDY    87  51  28 SW9       29.64R
$$

WAZ036>038-050600-
NORTHEAST WASHINGTON

CITY           SKY/WX    TMP DP  RH WIND       PRES   REMARKS
SPOKANE GEIGER PTCLDY    87  36  16 N10       29.73R
SPOKANE FELTS  CLEAR     87  44  22 N9G18     29.71R
FAIRCHILD AFB  CLEAR     83  36  18 N10       29.74R
COEURDALENE,ID MOCLDY    81  54  39 NE6       29.72R
DEER PARK      CLEAR     77  41  27 N6        29.74R
$$

WAZ029>033-050600-
SOUTHEAST WASHINGTON

CITY           SKY/WX    TMP DP  RH WIND       PRES   REMARKS
PULLMAN        PTCLDY    75  44  33 CALM      29.78R
LEWISTON, ID   PTCLDY    90  41  18 W7        29.67R
WALLA WALLA    MOCLDY    88  44  21 SE8       29.68R
PENDLETON, OR  MOCLDY    85  39  19 W10       29.71R
$$


USA.gov is the U.S. government's official web portal to all federal, state and local government web resources and services.